LOWELL-WX Weather Reports


time (UTC)temp
F
wind
direction
speed
knots
gust
knots
rain 1hr
in
rain 24hr
in
rain mn
in
humidity
%
barometer
mb
20260502220126 49 267 9.6 0.0 0.00 0.00 0.00 37 995.0
20260502214559 50 271 8.7 0.0 0.00 0.00 0.00 34 995.1
20260502213117 49 270 7.8 0.0 0.00 0.00 0.00 36 994.9
20260502211559 49 266 8.7 0.0 0.00 0.00 0.00 36 994.9
20260502210128 49 267 8.7 0.0 0.00 0.00 0.00 36 994.9
20260502204558 49 271 7.0 0.0 0.00 0.00 0.00 38 995.2
20260502203117 49 273 7.8 0.0 0.00 0.00 0.00 35 995.7
20260502201558 49 273 7.8 0.0 0.00 0.00 0.00 35 995.7
20260502200125 48 273 7.8 0.0 0.00 0.00 0.00 35 995.7
20260502194558 48 271 7.8 0.0 0.00 0.00 0.00 43 996.0
20260502193112 48 270 7.8 0.0 0.00 0.00 0.00 43 996.0
20260502191559 48 274 8.7 0.0 0.00 0.00 0.00 43 996.0
20260502190126 48 274 8.7 0.0 0.00 0.00 0.00 43 996.0
20260502184558 48 277 7.8 0.0 0.00 0.00 0.00 45 996.1
20260502183118 47 276 7.8 0.0 0.00 0.00 0.00 41 996.1
20260502181557 47 279 7.0 0.0 0.00 0.00 0.00 41 996.1
20260502180131 47 282 7.0 0.0 0.00 0.00 0.00 41 996.1
20260502170122 47 273 6.1 0.0 0.00 0.00 0.00 40 996.6
20260502163118 46 278 7.0 0.0 0.00 0.00 0.00 40 995.4
20260502161558 45 276 7.0 0.0 0.00 0.00 0.00 40 995.4
20260502160129 45 278 6.1 0.0 0.00 0.00 0.00 40 995.4
20260502151559 43 287 6.1 0.0 0.00 0.00 0.00 48 995.8
20260502150131 43 289 6.1 0.0 0.00 0.00 0.00 48 995.8
20260502130127 37 332 4.3 0.0 0.00 0.00 0.00 68 996.2
20260502123116 36 332 3.5 0.0 0.00 0.00 0.00 79 996.6
20260502121558 35 337 3.5 0.0 0.00 0.00 0.00 79 996.6
20260502120139 34 335 3.5 0.0 0.00 0.00 0.00 79 996.6
20260502114558 33 328 2.6 0.0 0.00 0.00 0.00 88 996.4
20260502113120 32 261 0.9 0.0 0.00 0.00 0.00 90 996.3
20260502111558 32 216 0.9 0.0 0.00 0.00 0.00 90 996.3
20260502110127 32 225 1.7 0.0 0.00 0.00 0.00 90 996.3
20260502104558 32 209 1.7 0.0 0.00 0.00 0.00 88 996.1
20260502103116 32 209 1.7 0.0 0.00 0.00 0.00 90 996.4
20260502101558 32 203 1.7 0.0 0.00 0.00 0.00 90 996.4
20260502100128 32 207 1.7 0.0 0.00 0.00 0.00 90 996.4
20260502090127 32 262 0.9 0.0 0.00 0.00 0.00 88 995.9
20260502070128 32 323 2.6 0.0 0.00 0.00 0.00 79 995.1
20260502064558 33 312 2.6 0.0 0.00 0.00 0.00 75 996.1
20260502063118 33 315 2.6 0.0 0.00 0.00 0.00 75 996.0
20260502061558 33 321 2.6 0.0 0.00 0.00 0.00 75 996.0
20260502060142 34 327 2.6 0.0 0.00 0.00 0.00 75 996.0
20260502054558 34 333 2.6 0.0 0.00 0.00 0.00 72 995.2
20260502053117 34 331 3.5 0.0 0.00 0.00 0.00 74 995.7
20260502051557 34 323 3.5 0.0 0.00 0.00 0.00 74 995.7
20260502050129 35 333 3.5 0.0 0.00 0.00 0.00 74 995.7
20260502044559 35 325 3.5 0.0 0.00 0.00 0.00 72 995.2
20260502043115 35 327 3.5 0.0 0.00 0.00 0.00 74 995.4
20260502041558 35 333 3.5 0.0 0.00 0.00 0.00 74 995.4
20260502040129 35 338 3.5 0.0 0.00 0.00 0.00 74 995.4
20260502034557 36 339 4.3 0.0 0.00 0.00 0.00 62 994.9
20260502033117 36 349 3.5 0.0 0.00 0.00 0.00 68 994.4
20260502031557 36 352 5.2 0.0 0.00 0.00 0.00 68 994.3
20260502030128 37 346 6.1 0.0 0.00 0.00 0.00 68 994.3
20260502024556 37 329 6.1 0.0 0.00 0.00 0.00 64 993.8
20260502023115 37 322 5.2 0.0 0.00 0.00 0.00 66 994.7
20260502021556 39 311 5.2 0.0 0.00 0.00 0.00 66 994.8
20260502020122 40 310 4.3 0.0 0.00 0.00 0.00 66 994.8
20260502014556 40 311 3.5 0.0 0.00 0.00 0.00 61 994.7
20260502013113 40 313 3.5 0.0 0.00 0.00 0.00 61 994.7
20260502011555 40 326 5.2 0.0 0.00 0.00 0.00 61 994.7
20260502010120 41 322 5.2 0.0 0.00 0.00 0.00 61 994.7
20260502004555 41 322 5.2 0.0 0.00 0.00 0.00 52 995.0
20260502003114 41 317 7.0 0.0 0.00 0.00 0.00 57 995.6
20260502001556 41 314 7.0 0.0 0.00 0.00 0.00 57 995.6
20260502000137 42 310 7.8 0.0 0.00 0.00 0.00 57 995.6
20260501234558 42 298 7.0 0.0 0.00 0.00 0.00 49 994.1
20260501233111 43 305 8.7 0.0 0.00 0.00 0.00 50 995.0
20260501231557 44 299 7.8 0.0 0.00 0.00 0.00 50 995.0
20260501230120 44 304 7.0 0.0 0.00 0.00 0.00 50 995.0
20260501224557 45 305 7.0 0.0 0.00 0.00 0.00 49 993.8
20260501223115 45 304 7.0 0.0 0.00 0.00 0.00 51 994.7
20260501221557 45 284 5.2 0.0 0.00 0.00 0.00 51 994.7